Simultaneous Nadir Overpasses (SNOs) Predictions

Prediction of SNOs between GOES-14 and NOAA-20 Satellite Orbit:

Table of predicted SNOs for the next 14.0 days since TLE Epoch: 8/17/2018
Index Date Time (GOES-14) GOES-14 Lat,Lon NOAA-20 Lat,Lon Distance(km) Time Diff (sec)
1 08/18/2018 08:26:00 0.39,-104.45 0.50,-105.00 62.23 80
2 08/19/2018 08:04:35 0.37,-104.43 -0.51,-100.47 451.70 80
3 08/20/2018 20:26:32 -0.38,-104.58 -0.66,-105.78 136.83 80
4 08/21/2018 20:10:28 -0.38,-104.57 0.35,-101.25 378.23 80
5 08/23/2018 08:32:15 0.38,-104.39 0.87,-106.51 241.56 80
6 08/24/2018 08:10:51 0.37,-104.37 -0.14,-101.98 272.42 80
7 08/25/2018 20:32:48 -0.38,-104.50 -1.02,-107.29 318.07 80
8 08/26/2018 20:16:44 -0.38,-104.50 -0.01,-102.76 197.31 80
9 08/28/2018 08:38:32 0.38,-104.34 1.18,-108.03 420.24 80
10 08/29/2018 08:17:07 0.38,-104.32 0.17,-103.50 93.95 80
11 08/30/2018 20:39:04 -0.38,-104.43 -1.38,-108.80 498.65 80




NCC Satellite Simultaneous Nadir Overpasses (SNOs) Prediction Service
